Lid_Strength_Index
12 13 14 14 14 14 15 17 17 16 14 15 15 15 13 12 16 16 16 17 17 17 18 18 18 18 18 18 18 17 17 17 17 17 18 18 19 18 18 17 16 16 16 15
13 14 13 13 13 15 16 17 17 16 16 16 16 16 14 13 14 15 15 16 17 17 19 18 18 19 19 18 18 18 17 17 17 17 18 18 19 18 18 17 17 17 16 16
14 13 12 13 15 15 17 17 18 17 17 17 18 18 18 15 15 14 14 14 16 17 18 18 19 19 19 19 19 18 17 17 17 18 18 18 18 19 19 19 19 18 17 16
13 13 14 15 15 15 17 16 17 17 19 20 17 20 19 16 16 16 15 16 16 17 18 18 18 20 20 19 18 18 18 18 17 18 18 20 20 21 20 20 19 18 17 17
13 15 15 15 15 15 16 16 18 18 19 21 21 22 20 20 18 14 15 15 16 17 18 18 18 18 19 18 19 19 19 19 18 18 19 20 20 20 20 20 20 19 18 17
14 15 15 14 15 16 15 17 18 20 21 23 20 20 22 20 18 16 16 17 17 18 18 18 18 19 18 19 19 19 19 19 18 19 19 20 21 21 21 21 21 20 19 18
15 15 16 14 16 15 16 17 20 22 23 21 22 23 19 17 17 16 16 17 18 19 19 19 19 19 19 19 19 19 19 20 19 20 20 21 21 22 22 21 21 20 20 19
16 17 16 15 14 15 17 16 19 24 24 21 23 23 19 17 16 18 19 18 18 20 19 19 19 18 19 19 20 19 20 20 20 20 21 21 21 21 21 21 21 21 20 20
16 16 16 16 16 16 18 19 17 20 29 26 20 20 18 17 18 18 19 18 19 21 20 19 19 19 20 20 20 20 20 20 21 21 21 22 22 22 22 22 21 21 20 19
13 15 17 18 18 19 18 16 19 20 24 28 22 21 19 16 17 16 19 20 20 21 20 19 19 19 20 20 20 20 21 21 21 22 22 22 23 22 22 22 22 21 20 19
13 13 17 18 19 19 20 19 20 19 20 23 26 20 18 16 15 15 17 19 20 20 20 19 19 19 19 20 20 21 21 22 22 22 23 23 23 22 22 22 22 21 20 20
14 14 16 16 19 19 17 17 17 19 20 22 21 19 17 16 15 16 17 18 20 20 20 19 19 20 20 20 21 22 22 23 23 23 23 23 23 23 23 23 22 21 21 20
13 15 17 17 19 19 19 17 17 17 19 21 20 19 17 18 17 18 18 19 20 20 21 20 20 20 20 21 21 22 23 24 23 24 25 24 24 24 23 23 22 22 22 21
11 14 17 18 18 18 19 19 17 16 19 17 19 17 15 13 13 12 16 20 20 20 20 19 19 20 20 21 22 23 24 24 24 25 25 25 24 24 24 23 23 23 22 22
14 16 16 15 15 18 18 18 18 20 18 18 17 17 15 13 12 12 12 15 20 21 20 19 19 20 21 22 23 24 25 25 25 26 26 25 24 24 24 23 23 23 22 22
17 17 16 17 16 17 17 17 16 19 18 18 17 17 12 11 11 12 12 15 19 20 19 19 19 20 21 21 24 23 26 25 25 26 25 25 25 25 25 24 24 24 24 23
19 19 22 19 18 18 19 18 15 15 14 16 19 16 12 13 12 12 12 17 18 19 19 19 19 20 21 22 23 26 26 25 26 25 26 27 26 26 26 26 26 25 25 24
18 19 17 18 21 22 16 13 15 16 15 14 13 13 12 11 11 17 15 16 18 18 19 19 20 22 23 25 25 26 25 26 26 26 27 27 27 28 27 27 27 27 25 24
14 17 18 19 19 17 16 17 18 18 16 14 15 13 12 12 18 15 17 16 16 18 18 19 21 23 24 26 26 26 26 26 27 28 28 28 28 29 29 30 28 27 25 25
14 14 15 16 19 21 16 14 17 16 18 13 12 13 13 17 17 14 17 19 20 19 21 23 23 24 25 26 26 26 27 28 28 28 28 28 28 30 30 29 29 26 27 25
18 17 18 18 18 16 13 19 17 19 17 14 12 12 13 16 13 17 20 20 21 22 23 24 25 26 26 26 27 27 28 29 29 29 29 29 30 31 30 29 28 28 27 25
16 17 18 18 18 19 14 18 16 13 11 12 16 15 15 15 19 20 20 21 23 24 23 24 26 27 27 27 27 28 29 29 29 30 31 32 33 32 29 30 29 28 27 26
15 13 14 14 15 13 14 11 11 10 10 12 16 16 15 17 19 20 21 22 23 23 24 24 26 27 28 28 28 28 30 30 30 34 35 36 32 30 29 30 29 28 27 25
12 11 13 13 12 13 14 12 10 9 11 11 15 17 16 18 19 20 21 22 23 23 24 26 27 28 30 29 30 30 30 31 36 35 31 29 30 30 28 27 26 27 26 25
10 10 12 12 11 11 10 10 10 12 14 16 16 16 16 17 18 19 20 22 22 24 25 25 26 27 29 30 31 31 32 34 34 32 29 30 30 31 29 27 28 25 23 20
9 10 12 13 10 10 10 9 9 11 14 14 15 17 16 17 18 19 20 21 23 24 25 25 26 28 29 30 31 33 35 35 36 31 30 30 29 29 28 29 28 23 20 18